DW5963 Weather Reports


time (UTC)temp
F
wind
direction
speed
knots
gust
knots
rain 1hr
in
rain 24hr
in
rain mn
in
humidity
%
barometer
mb
20260831165019 73 360 14.8 0.0 0.00 0.00 0.00 46 1008.0
20260831164519 73 360 15.6 0.0 0.00 0.00 0.00 46 1008.1
20260831164018 73 360 16.5 0.0 0.00 0.00 0.00 45 1008.1
20260831163019 72 360 14.8 0.0 0.00 0.00 0.00 45 1008.2
20260831162520 72 265 14.8 0.0 0.00 0.00 0.00 44 1008.1
20260831162015 71 360 16.5 0.0 0.00 0.00 0.00 45 1008.1
20260831161515 70 360 16.5 0.0 0.00 0.00 0.00 44 1008.2
20260831161014 70 267 16.5 0.0 0.00 0.00 0.00 45 1008.0
20260831160615 70 360 15.6 0.0 0.00 0.00 0.00 45 1008.1
20260831160013 70 360 15.6 0.0 0.00 0.00 0.00 45 1007.9
20260831155513 70 360 16.5 0.0 0.00 0.00 0.00 46 1007.9
20260831155013 69 360 15.6 0.0 0.00 0.00 0.00 46 1007.9
20260831154513 69 360 13.9 0.0 0.00 0.00 0.00 46 1007.9
20260831154012 69 360 13.0 0.0 0.00 0.00 0.00 47 1007.9
20260831153012 69 360 13.0 0.0 0.00 0.00 0.00 45 1007.9
20260831152514 69 360 13.0 0.0 0.00 0.00 0.00 46 1008.0
20260831152010 69 360 13.0 0.0 0.00 0.00 0.00 47 1008.0
20260831151510 68 360 13.0 0.0 0.00 0.00 0.00 47 1007.9
20260831151007 67 360 13.9 0.0 0.00 0.00 0.00 47 1007.9
20260831150507 67 360 13.0 0.0 0.00 0.00 0.00 48 1007.9
20260831150006 67 360 13.0 0.0 0.00 0.00 0.00 48 1007.8
20260831145507 67 360 13.0 0.0 0.00 0.00 0.00 49 1007.8
20260831145009 66 360 13.0 0.0 0.00 0.00 0.00 48 1007.8
20260831144506 66 360 13.0 0.0 0.00 0.00 0.00 49 1007.8
20260831144004 66 360 12.2 0.0 0.00 0.00 0.00 49 1007.7
20260831143006 65 360 12.2 0.0 0.00 0.00 0.00 49 1007.7
20260831142504 65 360 11.3 0.0 0.00 0.00 0.00 50 1007.7
20260831142004 64 360 11.3 0.0 0.00 0.00 0.00 50 1007.8
20260831141500 64 360 11.3 0.0 0.00 0.00 0.00 50 1007.8
20260831141100 64 360 11.3 0.0 0.00 0.00 0.00 50 1007.8
20260831141000 64 360 11.3 0.0 0.00 0.00 0.00 50 1007.8
20260831140602 64 360 11.3 0.0 0.00 0.00 0.00 51 1007.8
20260831140100 64 360 10.4 0.0 0.00 0.00 0.00 51 1007.8
20260831135559 63 360 9.6 0.0 0.00 0.00 0.00 52 1007.8
20260831135057 63 360 8.7 0.0 0.00 0.00 0.00 53 1007.8
20260831134557 62 360 8.7 0.0 0.00 0.00 0.00 53 1007.8
20260831134055 62 360 8.7 0.0 0.00 0.00 0.00 55 1007.8
20260831133654 60 360 8.7 0.0 0.00 0.00 0.00 56 1007.8
20260831133053 60 360 7.8 0.0 0.00 0.00 0.00 56 1007.8
20260831132556 60 360 7.8 0.0 0.00 0.00 0.00 57 1007.9
20260831132053 60 360 7.8 0.0 0.00 0.00 0.00 57 1007.9
20260831131555 60 360 7.8 0.0 0.00 0.00 0.00 57 1007.9
20260831131051 60 360 7.0 0.0 0.00 0.00 0.00 58 1007.9
20260831130550 59 360 7.8 0.0 0.00 0.00 0.00 58 1008.0
20260831130052 59 360 7.8 0.0 0.00 0.00 0.00 58 1007.9
20260831125549 59 360 7.8 0.0 0.00 0.00 0.00 58 1007.9
20260831125049 59 360 8.7 0.0 0.00 0.00 0.00 59 1007.9
20260831124548 59 360 7.8 0.0 0.00 0.00 0.00 59 1007.9
20260831124048 58 360 7.8 0.0 0.00 0.00 0.00 59 1007.8
20260831123646 58 360 8.7 0.0 0.00 0.00 0.00 59 1007.7
20260831123046 58 360 8.7 0.0 0.00 0.00 0.00 59 1007.6
20260831122545 58 360 8.7 0.0 0.00 0.00 0.00 59 1007.6
20260831122048 58 360 7.8 0.0 0.00 0.00 0.00 59 1007.5
20260831121547 58 360 7.8 0.0 0.00 0.00 0.00 60 1007.5
20260831121044 57 360 7.0 0.0 0.00 0.00 0.00 60 1007.4
20260831120545 57 360 6.1 0.0 0.00 0.00 0.00 60 1007.4
20260831120055 58 360 7.0 0.0 0.00 0.00 0.00 59 1007.4
20260831115545 58 360 7.8 0.0 0.00 0.00 0.00 59 1007.6
20260831115044 58 360 7.8 0.0 0.00 0.00 0.00 59 1007.5
20260831114546 58 360 7.0 0.0 0.00 0.00 0.00 60 1007.5
20260831114043 57 360 7.0 0.0 0.00 0.00 0.00 60 1007.3
20260831113645 57 360 6.1 0.0 0.00 0.00 0.00 61 1007.3
20260831113050 57 360 7.0 0.0 0.00 0.00 0.00 60 1007.2
20260831112543 58 360 7.8 0.0 0.00 0.00 0.00 61 1007.3
20260831112043 58 360 8.7 0.0 0.00 0.00 0.00 61 1007.2
20260831111542 58 360 8.7 0.0 0.00 0.00 0.00 62 1007.2
20260831111041 57 360 7.8 0.0 0.00 0.00 0.00 64 1007.2
20260831110540 56 360 6.1 0.0 0.00 0.00 0.00 68 1007.3
20260831110037 55 360 5.2 0.0 0.00 0.00 0.00 71 1007.3
20260831105537 54 360 6.1 0.0 0.00 0.00 0.00 73 1007.2
20260831105036 54 360 5.2 0.0 0.00 0.00 0.00 74 1007.2
20260831104539 54 360 5.2 0.0 0.00 0.00 0.00 75 1007.3
20260831104035 54 360 6.1 0.0 0.00 0.00 0.00 76 1007.3
20260831103634 53 360 5.2 0.0 0.00 0.00 0.00 78 1007.3
20260831103033 53 360 5.2 0.0 0.00 0.00 0.00 78 1007.3
20260831102533 53 360 3.5 0.0 0.00 0.00 0.00 78 1007.4
20260831102032 53 360 2.6 0.0 0.00 0.00 0.00 79 1007.2
20260831101532 53 360 3.5 0.0 0.00 0.00 0.00 79 1007.3
20260831101031 53 360 3.5 0.0 0.00 0.00 0.00 80 1007.5
20260831100530 52 360 3.5 0.0 0.00 0.00 0.00 81 1007.5
20260831100035 52 360 2.6 0.0 0.00 0.00 0.00 81 1007.5
20260831095529 52 360 2.6 0.0 0.00 0.00 0.00 80 1007.6
20260831095029 52 360 3.5 0.0 0.00 0.00 0.00 80 1007.6
20260831094529 52 360 3.5 0.0 0.00 0.00 0.00 81 1007.6
20260831094130 51 360 2.6 0.0 0.00 0.00 0.00 82 1007.7
20260831093630 51 360 1.7 0.0 0.00 0.00 0.00 82 1007.8
20260831093031 50 360 0.9 0.0 0.00 0.00 0.00 82 1007.8
20260831092534 50 360 0.9 0.0 0.00 0.00 0.00 81 1007.9
20260831092028 51 360 0.9 0.0 0.00 0.00 0.00 81 1007.9
20260831091533 51 360 0.0 0.0 0.00 0.00 0.00 81 1007.9
20260831091027 51 360 0.0 0.0 0.00 0.00 0.00 80 1007.7
20260831090529 51 360 0.0 0.0 0.00 0.00 0.00 80 1007.8
20260831090027 52 360 0.9 0.0 0.00 0.00 0.00 80 1007.8
20260831085526 52 360 1.7 0.0 0.00 0.00 0.00 81 1007.8
20260831085025 52 360 0.9 0.0 0.00 0.00 0.00 81 1007.8
20260831084528 52 360 0.0 0.0 0.00 0.00 0.00 81 1007.7
20260831084025 51 360 0.9 0.0 0.00 0.00 0.00 81 1007.7
20260831083625 51 360 1.7 0.0 0.00 0.00 0.00 81 1007.7
20260831083027 51 360 1.7 0.0 0.00 0.00 0.00 80 1007.7
20260831082524 52 360 0.9 0.0 0.00 0.00 0.00 81 1007.6
20260831082024 52 360 0.9 0.0 0.00 0.00 0.00 82 1007.7
20260831081525 52 360 0.9 0.0 0.00 0.00 0.00 82 1007.7
20260831081024 52 360 0.9 0.0 0.00 0.00 0.00 81 1007.7
20260831080522 52 360 0.0 0.0 0.00 0.00 0.00 81 1007.7
20260831080024 52 360 0.0 0.0 0.00 0.00 0.00 82 1007.8
20260831075521 52 360 0.0 0.0 0.00 0.00 0.00 82 1007.6
20260831075020 52 360 0.0 0.0 0.00 0.00 0.00 81 1007.6
20260831074524 53 360 0.9 0.0 0.00 0.00 0.00 81 1007.6
20260831074019 53 360 1.7 0.0 0.00 0.00 0.00 81 1007.4
20260831073617 53 360 1.7 0.0 0.00 0.00 0.00 81 1007.5
20260831073016 53 360 2.6 0.0 0.00 0.00 0.05 81 1007.4
20260831072516 53 360 2.6 0.0 0.00 0.00 0.05 82 1007.5
20260831072015 53 360 2.6 0.0 0.00 0.00 0.05 83 1007.4
20260831071515 53 360 3.5 0.0 0.00 0.00 0.05 83 1007.4
20260831071015 52 360 3.5 0.0 0.00 0.00 0.05 83 1007.5
20260831070514 53 360 2.6 0.0 0.00 0.00 0.05 81 1007.5
20260831070014 53 360 1.7 0.0 0.00 0.00 0.05 81 1007.3
20260831065514 54 360 0.9 0.0 0.00 0.00 0.05 81 1007.3
20260831065014 54 360 0.9 0.0 0.00 0.00 0.05 82 1007.4
20260831064513 54 360 1.7 0.0 0.00 0.00 0.05 82 1007.3
20260831064012 54 360 2.6 0.0 0.00 0.00 0.05 83 1007.3
20260831063615 53 360 2.6 0.0 0.00 0.00 0.05 83 1007.3
20260831063016 53 360 2.6 0.0 0.00 0.00 0.05 83 1007.4
20260831062513 53 360 3.5 0.0 0.00 0.00 0.05 82 1007.5
20260831062013 54 360 3.5 0.0 0.00 0.00 0.05 82 1007.5
20260831061513 54 360 1.7 0.0 0.00 0.00 0.05 82 1007.5
20260831061016 54 360 1.7 0.0 0.00 0.00 0.05 82 1007.6
20260831060511 54 360 1.7 0.0 0.00 0.00 0.05 82 1007.7
20260831060012 54 360 1.7 0.0 0.00 0.00 0.05 83 1007.6
20260831055513 54 360 0.9 0.0 0.00 0.00 0.05 83 1007.5
20260831055012 54 360 0.9 0.0 0.00 0.00 0.05 83 1007.7
20260831054511 54 360 0.9 0.0 0.00 0.00 0.05 83 1007.8
20260831054013 55 360 0.9 0.0 0.00 0.00 0.05 83 1007.8
20260831053611 54 360 0.0 0.0 0.00 0.00 0.05 83 1007.8
20260831053011 55 360 0.0 0.0 0.00 0.00 0.05 83 1007.8
20260831052510 55 360 0.0 0.0 0.00 0.00 0.05 83 1007.9
20260831052009 55 360 0.9 0.0 0.00 0.00 0.05 82 1007.9
20260831051518 55 360 1.7 0.0 0.00 0.00 0.05 82 1007.8
20260831051009 55 360 0.9 0.0 0.00 0.00 0.05 82 1007.7
20260831050509 55 360 1.7 0.0 0.00 0.00 0.05 82 1007.7
20260831050009 55 360 1.7 0.0 0.00 0.00 0.05 83 1007.7
20260831045512 55 360 1.7 0.0 0.00 0.00 0.05 83 1007.7
20260831045009 55 360 1.7 0.0 0.00 0.00 0.05 83 1007.7
20260831044509 55 360 1.7 0.0 0.00 0.00 0.05 83 1007.8
20260831044009 54 360 1.7 0.0 0.00 0.00 0.05 83 1007.7
20260831043609 53 360 0.9 0.0 0.00 0.00 0.05 82 1007.8
20260831043009 53 360 0.9 0.0 0.00 0.00 0.05 81 1007.8
20260831042506 54 360 0.9 0.0 0.00 0.00 0.05 80 1007.6
20260831042004 55 360 1.7 0.0 0.00 0.00 0.05 80 1007.6
20260831041505 55 360 1.7 0.0 0.00 0.00 0.05 81 1007.8
20260831041005 55 360 0.9 0.0 0.00 0.00 0.05 80 1007.9
20260831040503 55 360 1.7 0.0 0.00 0.00 0.05 80 1007.8
20260831040002 56 360 0.9 0.0 0.00 0.00 0.05 79 1007.9
20260831035501 56 360 1.7 0.0 0.00 0.00 0.05 79 1007.9
20260831035100 56 360 1.7 0.0 0.00 0.00 0.05 79 1008.0
20260831035000 56 360 1.7 0.0 0.00 0.00 0.05 79 1007.9
20260831034600 56 360 2.6 0.0 0.00 0.00 0.05 78 1008.0
20260831034102 56 360 2.6 0.0 0.00 0.00 0.05 79 1007.9
20260831033600 56 360 3.5 0.0 0.00 0.00 0.05 78 1007.9
20260831033110 56 360 3.5 0.0 0.00 0.00 0.05 78 1007.9
20260831032601 57 360 3.5 0.0 0.00 0.00 0.05 77 1008.0
20260831032059 57 360 4.3 0.0 0.00 0.00 0.05 77 1007.9
20260831031557 57 360 3.5 0.0 0.00 0.00 0.05 76 1007.8
20260831031055 57 360 2.6 0.0 0.00 0.00 0.05 76 1007.8
20260831030556 58 360 1.7 0.0 0.00 0.00 0.05 76 1007.7
20260831030056 58 360 1.7 0.0 0.00 0.00 0.05 75 1007.7
20260831025552 58 360 1.7 0.0 0.00 0.00 0.05 75 1007.6
20260831025052 58 360 1.7 0.0 0.00 0.00 0.05 74 1007.4
20260831024550 59 360 2.6 0.0 0.00 0.00 0.05 73 1007.4
20260831024048 59 360 3.5 0.0 0.00 0.00 0.05 73 1007.2
20260831023551 60 360 3.5 0.0 0.00 0.00 0.05 73 1007.2
20260831023049 60 360 3.5 0.0 0.00 0.00 0.05 73 1007.3
20260831022548 60 360 3.5 0.0 0.00 0.00 0.05 73 1007.1
20260831022047 60 360 3.5 0.0 0.00 0.00 0.05 71 1007.1
20260831021546 61 360 3.5 0.0 0.00 0.00 0.05 71 1007.1
20260831021046 61 360 4.3 0.0 0.00 0.00 0.05 70 1007.2
20260831020545 62 360 4.3 0.0 0.00 0.00 0.05 70 1007.0
20260831020104 62 360 5.2 0.0 0.00 0.00 0.05 69 1006.9
20260831015545 63 360 6.1 0.0 0.00 0.00 0.05 69 1006.9
20260831015045 63 360 6.1 0.0 0.00 0.00 0.05 69 1006.7
20260831014544 64 360 5.2 0.0 0.00 0.00 0.05 71 1006.7
20260831014044 64 360 4.3 0.0 0.00 0.00 0.05 71 1006.7
20260831013546 65 360 4.3 0.0 0.00 0.00 0.05 70 1006.8
20260831013044 65 360 4.3 0.0 0.00 0.00 0.05 70 1006.8
20260831012544 65 360 4.3 0.0 0.00 0.00 0.05 69 1006.8
20260831012043 66 360 4.3 0.0 0.00 0.00 0.05 68 1006.6
20260831011546 66 360 5.2 0.0 0.00 0.00 0.05 67 1006.7
20260831011043 66 360 6.1 0.0 0.00 0.00 0.05 67 1006.7
20260831010543 67 360 6.1 0.0 0.00 0.00 0.05 66 1006.7
20260831010044 67 360 6.1 0.0 0.00 0.00 0.05 64 1006.7
20260831005543 68 360 6.1 0.0 0.00 0.00 0.05 63 1006.7
20260831005043 68 360 6.1 0.0 0.00 0.00 0.05 63 1006.7
20260831004545 68 287 5.2 0.0 0.00 0.00 0.05 62 1006.6
20260831004043 68 360 4.3 0.0 0.00 0.00 0.05 62 1006.5
20260831003543 68 269 3.5 0.0 0.00 0.00 0.05 65 1006.3
20260831003042 67 360 3.5 0.0 0.00 0.00 0.05 65 1006.2
20260831002542 67 360 2.6 0.0 0.00 0.00 0.05 66 1006.4
20260831002042 66 360 2.6 0.0 0.00 0.00 0.05 67 1006.4
20260831001543 66 360 2.6 0.0 0.00 0.00 0.05 67 1006.4
20260831001045 66 360 3.5 0.0 0.00 0.00 0.05 67 1006.2
20260831000543 66 360 3.5 0.0 0.00 0.00 0.05 68 1006.0
20260831000046 65 360 4.3 0.0 0.00 0.00 0.05 69 1006.0
20260830235542 65 360 4.3 0.0 0.00 0.00 0.05 70 1006.2
20260830235043 65 360 3.5 0.0 0.00 0.00 0.05 70 1006.3
20260830234542 66 360 2.6 0.0 0.00 0.00 0.05 67 1005.5
20260830234043 67 360 3.5 0.0 0.00 0.00 0.05 65 1005.2
20260830233543 67 360 5.2 0.0 0.00 0.00 0.05 62 1006.7
20260830233045 67 360 6.1 0.0 0.00 0.00 0.05 62 1006.8
20260830232543 67 360 5.2 0.0 0.00 0.00 0.05 62 1007.0
20260830232041 67 360 5.2 0.0 0.00 0.00 0.05 63 1007.0
20260830231540 67 360 5.2 0.0 0.00 0.00 0.05 64 1007.0
20260830231039 67 360 5.2 0.0 0.00 0.00 0.05 64 1006.7
20260830230539 67 360 7.8 0.0 0.00 0.00 0.05 64 1006.4
20260830230038 67 360 9.6 0.0 0.00 0.00 0.05 64 1006.9
20260830225538 68 360 9.6 0.0 0.00 0.00 0.05 65 1007.0
20260830225038 68 360 10.4 0.0 0.00 0.00 0.05 64 1007.1
20260830224536 68 360 11.3 0.0 0.00 0.00 0.05 63 1006.7
20260830224037 69 360 13.9 0.0 0.00 0.00 0.05 63 1006.6
20260830223537 68 360 14.8 0.0 0.00 0.00 0.05 64 1006.6
20260830223036 68 360 13.9 0.0 0.00 0.00 0.05 63 1006.5
20260830222537 68 360 13.0 0.0 0.00 0.00 0.05 61 1005.9
20260830222033 69 360 13.9 0.0 0.00 0.00 0.05 61 1005.6
20260830221538 70 360 14.8 0.0 0.00 0.00 0.05 59 1005.6
20260830221031 69 360 16.5 0.0 0.00 0.00 0.05 62 1005.6
20260830220531 68 360 17.4 0.0 0.00 0.00 0.05 62 1005.2
20260830220030 68 360 17.4 0.0 0.00 0.00 0.05 61 1004.9
20260830215530 68 360 17.4 0.0 0.00 0.00 0.05 61 1004.6
20260830215030 68 360 18.2 0.0 0.00 0.00 0.05 64 1004.6
20260830214528 69 360 18.2 0.0 0.00 0.00 0.05 64 1004.6
20260830214029 69 360 16.5 0.0 0.00 0.00 0.05 70 1004.7
20260830213529 66 360 15.6 0.0 0.00 0.00 0.05 81 1004.7
20260830213035 66 360 14.8 0.0 0.00 0.00 0.05 81 1004.7
20260830212529 66 360 14.8 0.0 0.00 0.00 0.05 80 1005.1
20260830212028 68 360 13.9 0.0 0.00 0.00 0.05 77 1005.1
20260830211528 70 360 12.2 0.0 0.00 0.00 0.05 72 1005.0
20260830211031 72 360 10.4 0.0 0.00 0.00 0.05 68 1004.9
20260830210527 72 360 10.4 0.0 0.00 0.00 0.05 70 1004.8
20260830210027 71 360 11.3 0.0 0.00 0.00 0.05 70 1004.3
20260830205527 73 298 10.4 0.0 0.00 0.00 0.05 67 1004.0
20260830205027 73 284 10.4 0.0 0.00 0.00 0.05 66 1004.2
20260830204526 73 283 12.2 0.0 0.00 0.00 0.05 67 1004.2
20260830204026 73 294 11.3 0.0 0.00 0.00 0.05 66 1003.9
20260830203526 73 296 10.4 0.0 0.00 0.00 0.05 68 1003.8
20260830203026 73 300 10.4 0.0 0.00 0.00 0.05 67 1003.9
20260830202526 73 360 10.4 0.0 0.00 0.00 0.05 67 1003.8
20260830202026 73 360 11.3 0.0 0.00 0.00 0.05 67 1003.8
20260830201526 74 290 12.2 0.0 0.00 0.00 0.05 66 1003.8
20260830201027 75 281 12.2 0.0 0.00 0.00 0.05 65 1003.8
20260830200525 76 270 13.9 0.0 0.00 0.00 0.05 63 1003.8
20260830200025 77 285 13.9 0.0 0.00 0.00 0.05 63 1003.8
20260830195525 78 360 13.9 0.0 0.00 0.00 0.05 63 1003.8
20260830195025 77 268 14.8 0.0 0.00 0.00 0.05 63 1003.8
20260830194525 78 280 14.8 0.0 0.00 0.00 0.05 64 1003.8
20260830194025 77 282 13.9 0.0 0.00 0.00 0.05 66 1003.7
20260830193526 77 277 12.2 0.0 0.00 0.00 0.05 68 1003.7
20260830193024 77 303 11.3 0.0 0.00 0.00 0.05 69 1003.6
20260830192523 76 286 10.4 0.0 0.00 0.00 0.05 69 1003.8
20260830192027 76 292 11.3 0.0 0.00 0.00 0.05 69 1003.7
20260830191528 77 274 11.3 0.0 0.00 0.00 0.05 69 1003.6
20260830191023 78 310 12.2 0.0 0.00 0.00 0.05 67 1003.5
20260830190523 79 290 11.3 0.0 0.00 0.00 0.05 66 1003.4
20260830190025 79 332 10.4 0.0 0.00 0.00 0.05 66 1003.3
20260830185525 79 277 11.3 0.0 0.00 0.00 0.05 65 1003.3
20260830185022 80 360 11.3 0.0 0.00 0.00 0.05 64 1003.3
20260830184523 79 271 10.4 0.0 0.00 0.00 0.05 66 1003.3
20260830184022 78 279 8.7 0.0 0.00 0.00 0.05 67 1003.4
20260830183523 78 281 7.8 0.0 0.00 0.00 0.05 67 1003.4
20260830183024 78 291 7.8 0.0 0.00 0.00 0.05 68 1003.5
20260830182527 78 309 7.0 0.0 0.00 0.00 0.05 68 1003.3
20260830182026 79 351 7.0 0.0 0.00 0.00 0.05 65 1003.1
20260830181524 80 305 7.0 0.0 0.00 0.00 0.05 65 1003.0
20260830181030 79 305 6.1 0.0 0.00 0.00 0.05 66 1003.0
20260830180524 79 322 6.1 0.0 0.00 0.00 0.05 66 1003.2
20260830180023 79 313 6.1 0.0 0.00 0.00 0.05 66 1003.2
20260830175523 79 329 6.1 0.0 0.00 0.00 0.05 65 1003.1
20260830175022 79 334 7.0 0.0 0.00 0.00 0.05 67 1003.2
20260830174525 79 310 7.0 0.0 0.00 0.00 0.05 66 1003.2
20260830174022 79 325 7.0 0.0 0.00 0.00 0.05 65 1003.2
20260830173522 79 305 7.8 0.0 0.00 0.00 0.05 66 1003.4
20260830173020 78 332 7.8 0.0 0.00 0.00 0.05 67 1003.3
20260830172520 78 296 7.8 0.0 0.00 0.00 0.05 67 1003.3
20260830172020 78 275 7.0 0.0 0.00 0.00 0.05 66 1003.3
20260830171520 78 315 7.0 0.0 0.00 0.00 0.05 67 1003.2
20260830171021 78 279 7.0 0.0 0.00 0.00 0.05 66 1003.2
20260830170523 78 290 7.8 0.0 0.00 0.00 0.05 65 1003.1
20260830170037 79 293 8.7 0.0 0.00 0.00 0.05 66 1003.1
20260830165520 79 300 8.7 0.0 0.00 0.00 0.05 66 1003.0